CAPE
0 0 0 0 0 0 0 0 0 69 118 178 268 243 287 152 90 350 218 54 2 127
0 0 0 0 0 0 0 0 0 0 0 64 165 269 327 276 178 326 156 42 45 47
0 0 0 0 0 0 0 0 0 0 0 0 75 232 280 430 447 204 90 30 5 0
0 0 0 0 0 0 0 0 0 0 0 0 0 9 124 190 291 192 129 55 19 0
0 0 0 0 0 0 0 0 0 0 0 0 0 0 0 51 127 119 78 55 10 0
0 0 0 0 0 0 0 0 0 0 0 0 0 0 0 15 33 45 31 11 0 0
0 0 0 0 0 0 0 0 0 0 0 0 0 0 0 7 94 86 63 25 0 0
0 0 0 0 0 0 0 0 0 0 0 0 0 0 0 0 6 34 49 33 2 10
0 0 0 0 0 0 0 0 0 0 0 0 0 0 0 0 0 7 14 33 44 5
0 0 0 0 0 0 0 0 0 0 0 0 0 0 0 0 0 0 4 0 0 7
0 0 0 0 0 0 0 0 0 0 0 0 0 0 0 0 0 0 0 0 0 0
0 0 0 0 0 0 0 0 0 0 0 0 0 0 0 0 0 0 0 0 0 0
0 0 2 6 9 5 0 0 0 0 0 0 0 0 0 0 0 0 0 0 0 1
11 1 0 0 0 13 0 0 0 0 0 0 0 0 0 0 9 1 0 0 0 3
CIN
-0 -0 -0 -0 -0 -0 -0 -0 -0 -34 -8 -4 -49 -39 -69 -94 -119 -76 -87 -126 -23 -211
-0 -0 -0 -0 -0 -0 -0 -0 -0 -0 -0 -31 -17 -5 -29 -61 -92 -103 -136 -169 -213 -221
-0 -0 -0 -0 -0 -0 -0 -0 -0 -0 -0 -0 -33 -13 -11 -16 -35 -116 -194 -224 -153 -0
-0 -0 -0 -0 -0 -0 -0 -0 -0 -0 -0 -0 -0 -13 -23 -30 -34 -92 -145 -236 -260 -0
-0 -0 -0 -0 -0 -0 -0 -0 -0 -0 -0 -0 -0 -0 -0 -39 -53 -80 -130 -193 -288 -0
-0 -0 -0 -0 -0 -0 -0 -0 -0 -0 -0 -0 -0 -0 -0 -36 -60 -103 -141 -169 -0 -0
-0 -0 -0 -0 -0 -0 -0 -0 -0 -0 -0 -0 -0 -0 -0 -10 -35 -64 -102 -142 -0 -0
-0 -0 -0 -0 -0 -0 -0 -0 -0 -0 -0 -0 -0 -0 -0 -0 -4 -57 -91 -136 -169 -201
-0 -0 -0 -0 -0 -0 -0 -0 -0 -0 -0 -0 -0 -0 -0 -0 -0 -51 -69 -100 -144 -210
-0 -0 -0 -0 -0 -0 -0 -0 -0 -0 -0 -0 -0 -0 -0 -0 -0 -15 -60 -0 -0 -100
-0 -0 -0 -0 -0 -0 -0 -0 -0 -0 -0 -0 -0 -0 -0 -0 -0 -0 -0 -0 -0 -0
-0 -0 -0 -0 -0 -4 -0 -0 -0 -0 -0 -0 -0 -0 -0 -0 -0 -0 -0 -0 -0 -0
-0 -0 -0 -0 -0 -1 -0 -0 -0 -0 -0 -0 -0 -0 -0 -0 -0 -0 -0 -0 -0 -73
-0 -2 -0 -0 -0 -1 -3 -0 -0 -0 -0 -0 -0 -0 -0 -0 -28 -14 -0 -0 -9 -66
Wind_Speed
28 30 33 35 36 38 39 38 37 35 34 35 35 37 34 33 32 33 29 27 29 29
29 30 33 35 37 38 38 39 39 40 39 38 38 38 36 35 35 33 31 29 29 30
33 34 35 35 36 37 37 38 40 40 41 42 41 39 38 37 36 35 34 33 32 31
35 35 35 37 37 37 36 37 38 39 40 41 41 41 40 39 37 38 36 32 31 30
33 33 35 36 37 36 39 38 38 38 39 40 42 43 42 41 39 37 35 33 31 28
33 34 35 36 38 38 39 40 40 40 40 41 42 42 42 41 39 35 34 31 31 29
40 40 41 41 40 41 41 41 42 42 42 42 41 40 41 40 37 34 31 30 29 29
44 45 44 43 42 42 41 42 42 43 43 42 41 39 38 36 35 34 34 30 27 29
48 47 47 45 44 43 43 41 40 42 43 43 42 41 39 36 34 31 28 31 30 30
48 48 46 46 44 42 43 43 42 43 45 47 45 43 40 36 34 32 29 29 33 39
46 45 43 43 41 38 39 42 43 44 47 48 48 46 45 39 33 34 37 36 30 30
48 48 48 44 36 33 35 37 38 40 43 45 42 40 44 39 33 35 40 36 32 29
49 40 38 37 32 25 23 28 34 38 39 40 42 42 41 37 32 34 32 23 29 27
39 36 35 28 26 30 18 23 35 38 40 41 38 39 39 35 27 27 23 26 29 29
Wind_Direction
314 316 314 313 312 310 308 307 307 306 304 303 301 296 290 287 278 282 284 275 278 282
309 312 312 312 312 309 309 308 307 304 303 302 300 296 292 286 283 281 280 277 278 281
305 306 308 309 310 310 311 310 307 304 303 301 301 298 294 290 286 283 280 279 278 280
304 305 305 305 306 307 308 310 309 308 303 301 300 300 297 292 290 286 283 280 278 278
304 304 304 305 306 306 303 305 305 307 306 301 298 298 295 293 290 288 284 280 277 276
303 302 301 302 303 303 303 302 302 303 303 302 300 297 295 293 291 288 285 281 277 276
306 305 303 302 301 300 300 299 299 298 299 300 299 297 297 294 293 290 288 283 278 276
305 305 304 304 303 301 299 297 297 296 295 296 296 295 296 296 293 291 287 288 283 279
302 303 301 301 300 299 296 296 295 293 292 291 291 292 290 292 290 291 290 283 284 282
302 301 301 300 296 293 293 291 290 289 287 286 287 286 286 287 286 282 285 287 285 281
304 304 303 302 298 293 291 288 288 286 284 282 280 277 275 280 283 279 278 281 285 271
303 301 300 298 294 293 290 289 289 286 283 281 278 274 267 272 281 278 270 275 259 251
304 301 302 301 302 293 280 286 287 282 282 281 273 266 264 267 276 273 277 262 249 254
306 305 300 293 290 299 284 287 282 281 278 276 269 262 260 265 268 269 274 262 253 240